Wind_Speed
24 35 37 31 28 27 29 30 27 26 26 26 25 26 27 28 31 34 34 38 36 39 33 30 28 30 26 26 25 23 21 18 18 15 12 12 13 14 14 14 14 14 14
24 27 24 24 21 26 29 28 30 28 27 26 26 27 28 30 33 37 39 42 40 38 37 32 32 34 28 27 27 26 22 20 20 15 13 6 12 16 16 16 16 15 14
22 21 23 13 9 18 23 26 27 27 28 29 25 24 25 29 31 35 36 38 39 39 43 38 31 32 32 30 29 28 26 22 20 19 11 4 6 12 16 19 17 17 17
22 20 18 9 8 11 15 20 23 25 26 27 27 30 29 24 25 32 30 35 39 40 41 39 34 32 33 31 31 29 27 24 21 19 20 9 4 6 5 15 18 18 19
21 21 17 23 8 8 12 16 19 23 24 27 31 30 31 31 23 28 30 33 35 36 39 37 35 32 32 32 31 30 28 25 22 22 18 16 8 8 7 5 10 18 18
22 19 23 25 23 12 11 13 18 20 24 23 31 32 33 29 25 26 23 26 31 32 36 37 35 34 32 33 33 32 33 29 24 20 20 20 15 14 9 6 7 12 14
20 19 21 18 23 27 7 7 15 18 18 18 26 30 34 34 27 27 30 31 31 32 36 39 36 33 33 31 33 28 28 29 27 25 23 23 22 19 16 13 8 5 9
19 20 22 24 28 26 14 2 3 1 17 19 18 26 38 33 34 31 35 28 30 33 36 39 37 34 33 32 33 31 27 27 28 28 24 22 23 20 18 14 8 3 7
19 19 18 21 24 25 22 6 9 7 16 17 16 12 11 17 17 19 24 31 30 32 34 37 34 36 34 35 28 25 24 27 29 28 29 27 24 24 26 25 27 14 6
17 18 18 25 27 28 27 26 19 16 9 17 16 16 15 16 17 19 21 21 26 28 31 31 33 32 23 24 25 31 32 33 36 34 28 27 27 24 25 26 21 21 16
14 14 14 24 26 26 28 26 26 20 19 20 19 15 15 13 13 13 17 22 25 29 32 32 30 28 26 31 34 29 24 29 34 30 24 24 23 24 23 23 25 22 20
14 13 15 21 23 25 27 28 27 24 25 25 25 21 16 13 11 15 20 20 24 24 27 31 29 28 29 28 32 30 28 28 28 25 22 27 26 30 26 25 28 23 25
13 14 14 16 21 22 25 25 27 26 28 28 29 29 26 22 19 18 15 19 23 21 17 23 25 26 26 27 28 24 20 18 23 24 25 23 24 23 25 25 22 23 28
11 13 13 14 19 21 23 24 25 25 26 28 28 25 24 23 22 15 15 18 17 16 11 9 12 16 18 21 22 25 26 20 18 23 24 24 30 29 31 25 27 28 30
8 10 12 12 18 19 20 21 21 21 19 21 26 22 20 21 19 19 19 15 10 9 4 3 3 4 6 11 14 15 16 15 15 18 20 23 27 31 33 33 32 32 30
5 8 8 11 14 17 18 17 17 18 17 19 19 17 17 16 17 18 19 17 16 14 10 9 6 3 4 9 15 17 15 16 19 20 20 23 27 31 31 35 34 33 32
3 4 5 7 9 12 13 15 15 15 18 18 17 16 15 14 14 13 13 13 13 12 11 9 8 6 3 3 2 5 8 10 12 15 16 17 18 21 22 18 22 21 22
3 1 2 4 6 7 8 9 12 14 14 14 15 15 14 13 12 12 12 11 10 8 7 8 7 5 5 5 4 4 5 6 8 9 11 14 16 15 16 14 11 12 11
5 3 2 1 2 3 5 7 9 9 11 13 12 12 11 10 10 11 10 9 11 10 9 7 7 6 6 7 6 7 6 6 8 9 10 11 13 15 16 17 14 13 14
8 6 5 3 1 2 3 5 7 8 10 10 10 10 11 11 11 10 10 9 9 8 7 7 7 8 7 8 8 7 6 7 8 11 12 12 14 15 14 17 16 17 19
9 8 7 6 4 2 0 3 4 5 5 5 7 9 9 9 9 9 8 8 8 7 8 9 8 8 8 9 10 10 8 9 11 12 13 15 14 15 16 18 20 22 20
9 10 8 8 6 5 4 3 2 2 3 3 5 6 6 7 7 7 6 6 6 7 7 7 7 7 8 9 9 11 11 12 11 14 14 14 17 17 18 20 23 23 21
12 11 11 8 7 7 6 5 4 3 3 2 2 4 4 5 6 6 7 6 7 7 7 7 8 9 10 10 12 12 12 11 12 13 17 20 20 19 19 22 25 23 24
14 14 12 11 10 10 9 6 4 3 2 2 2 3 3 4 5 4 5 4 4 5 5 7 8 10 11 11 11 15 17 18 16 17 20 21 21 21 20 22 26 28 31
15 14 14 13 13 11 11 11 9 7 5 4 3 1 1 2 3 3 3 4 3 3 6 7 8 10 11 11 17 17 19 19 21 23 23 23 21 21 23 24 25 28 29
15 14 14 13 13 13 12 12 12 10 8 6 4 3 2 2 4 6 6 7 4 7 5 4 6 9 11 16 17 17 18 19 20 20 18 18 19 19 19 20 23 28 30
Wind_Direction
310 302 291 278 262 240 234 217 212 212 209 214 208 214 215 210 203 205 197 194 194 197 193 196 193 196 194 200 200 197 195 202 204 200 211 221 225 226 226 224 226 228 225
322 323 306 282 243 230 224 220 214 205 211 210 216 210 213 214 204 196 198 192 195 195 197 195 197 198 196 203 202 197 196 200 198 201 200 212 221 229 226 223 224 227 222
327 330 322 307 245 219 218 218 215 212 211 207 209 214 205 206 203 196 193 191 191 192 199 201 201 200 196 198 200 198 194 194 197 206 199 207 228 207 217 221 221 220 221
336 335 325 295 265 239 226 225 221 218 215 210 207 206 204 202 201 190 184 184 191 197 200 203 201 200 199 196 198 199 198 197 198 198 226 248 276 207 194 221 220 220 223
344 342 6 6 304 243 219 216 221 220 217 212 210 207 209 208 193 190 187 187 194 197 198 198 200 201 200 200 198 196 198 202 208 202 206 225 237 243 251 217 210 221 222
343 348 359 3 356 312 227 220 221 221 217 215 212 205 203 203 201 200 191 191 192 194 198 198 201 202 204 200 201 202 199 201 208 211 211 215 214 219 219 243 237 228 225
350 351 1 356 348 342 238 237 221 213 211 221 211 203 202 201 192 186 194 197 195 198 200 200 201 202 203 203 204 200 207 203 205 214 217 227 232 237 233 231 220 212 211
349 354 355 350 347 355 19 45 149 324 209 202 191 201 198 178 193 194 197 202 202 200 199 195 199 203 202 204 207 212 217 217 217 218 220 229 231 229 227 224 195 202 232
349 348 347 350 350 356 0 349 95 94 186 194 188 196 168 170 178 186 196 198 195 193 191 193 200 202 202 201 201 205 223 229 230 230 228 228 234 232 236 230 225 209 230
348 349 351 350 351 2 0 17 31 40 122 182 173 181 184 181 183 184 187 183 186 191 194 187 188 189 193 199 203 213 223 232 233 234 229 227 232 238 235 231 224 222 228
354 350 352 354 356 7 9 10 26 35 64 120 147 151 170 172 177 169 193 204 207 204 206 205 203 212 207 206 211 216 222 232 235 228 229 228 240 231 233 237 233 223 225
356 1 5 6 6 9 9 13 14 38 50 75 91 102 115 125 138 184 203 211 202 203 198 193 187 180 185 197 209 206 209 227 236 245 257 249 239 244 240 230 226 235 238
358 6 12 14 16 13 17 18 18 34 55 68 68 72 78 89 91 100 134 170 180 188 198 199 202 208 208 219 235 234 231 253 254 258 240 241 241 243 231 233 240 248 255
2 0 9 10 16 21 20 24 26 30 48 70 74 72 71 75 78 88 96 92 104 111 119 147 175 207 218 222 231 235 230 239 248 248 254 260 260 251 249 244 256 256 251
4 3 0 6 10 16 24 31 32 30 40 53 57 58 67 74 76 84 92 104 110 108 137 101 128 193 216 213 208 212 221 227 235 239 240 248 254 257 258 258 253 246 246
2 360 3 5 8 9 12 26 30 37 42 50 52 51 57 58 63 63 70 74 76 79 80 81 91 113 182 232 239 235 239 246 252 259 264 262 263 264 268 261 245 251 237
342 359 2 4 5 2 2 15 25 32 42 45 46 51 55 58 58 62 64 65 66 69 69 72 73 69 50 340 270 236 248 258 262 262 262 264 265 260 265 270 272 275 269
220 297 352 356 1 2 15 24 30 40 46 49 45 39 47 49 55 62 61 63 70 73 77 65 63 61 29 14 338 306 294 287 275 274 277 278 274 265 243 239 242 253 277
200 206 244 282 360 13 18 29 39 47 52 49 51 51 53 57 58 54 52 53 52 59 53 50 47 39 23 3 340 328 309 309 301 289 286 281 274 269 259 246 232 221 212
197 198 209 216 250 7 19 52 46 42 42 36 40 46 52 54 54 56 58 56 56 53 46 44 36 22 19 349 350 330 313 307 295 291 287 278 275 268 258 244 235 222 218
199 198 197 212 205 204 22 42 54 59 43 51 55 52 49 51 52 51 48 42 39 37 29 27 19 17 3 358 356 345 330 312 308 300 295 289 283 273 258 244 241 240 242
197 203 207 206 207 205 200 182 132 90 83 72 73 64 50 48 52 55 54 46 34 36 31 15 6 7 359 345 349 342 324 316 304 295 294 295 297 286 269 254 251 247 242
207 206 212 214 211 214 216 211 185 163 143 126 80 65 62 52 44 44 32 26 21 22 10 2 350 340 339 339 339 339 332 322 306 293 293 299 296 289 276 260 255 246 234
211 201 206 216 217 215 220 226 209 195 179 139 89 61 55 44 28 25 22 16 11 8 345 334 328 325 324 327 333 334 330 325 322 319 312 306 298 290 284 271 251 242 238
216 214 217 220 224 213 212 210 211 206 201 192 182 166 80 33 6 357 343 328 322 334 318 314 316 315 317 323 322 321 320 317 312 311 304 299 295 287 275 265 250 235 235
208 211 220 228 232 222 214 208 208 207 205 205 206 199 207 304 326 319 308 296 282 303 304 321 321 314 313 322 324 325 319 313 312 308 291 282 278 268 264 256 246 236 231
Height
737 726 713 708 708 709 711 712 716 720 726 730 732 737 739 742 743 751 756 761 767 773 780 785 790 795 799 804 809 812 815 821 824 826 827 829 829 830 830 831 832 833 833
732 716 700 694 693 698 701 706 708 711 718 722 726 728 732 736 739 740 749 752 760 767 775 779 783 788 793 800 804 807 810 816 820 822 823 823 825 825 826 827 828 829 830
732 716 700 691 690 694 697 700 703 706 710 713 720 725 727 731 734 736 742 747 755 759 767 773 778 782 787 793 799 802 805 810 815 817 818 818 815 815 820 822 823 824 825
730 717 704 693 693 692 694 696 699 702 705 709 713 716 720 721 725 731 735 742 748 755 761 766 772 776 782 786 791 797 800 806 809 813 815 814 812 813 813 817 818 819 821
733 721 706 699 692 690 691 693 695 697 700 703 706 709 715 719 724 727 733 737 744 749 754 759 766 772 776 781 785 790 795 800 805 805 809 812 813 812 810 808 813 815 816
731 722 712 704 696 690 688 689 691 693 695 697 699 702 707 715 720 724 729 734 739 744 749 754 760 765 770 774 779 784 786 792 798 802 804 806 808 809 809 809 809 810 813
735 725 716 708 700 690 686 687 689 690 692 695 694 696 701 706 714 719 724 730 734 737 743 748 754 759 764 769 774 778 787 787 791 796 799 802 804 806 806 805 807 807 810
739 730 722 712 702 693 690 689 687 683 687 693 693 694 703 699 709 712 717 723 728 732 738 742 747 752 758 763 769 775 778 787 787 790 793 797 799 801 803 804 804 806 806
745 737 729 722 710 701 695 690 685 689 687 688 691 690 685 694 706 710 714 717 720 726 728 735 741 745 754 759 763 768 776 781 784 785 788 791 794 795 796 798 797 799 802
751 741 733 723 716 706 698 691 687 685 686 689 692 697 700 704 707 711 713 718 721 723 730 731 737 741 746 752 756 765 772 774 779 781 782 784 787 790 791 792 792 795 795
754 749 742 732 722 714 706 697 693 689 687 689 694 699 703 706 709 706 712 716 720 723 727 731 735 737 743 748 755 759 763 771 774 773 774 779 779 784 784 787 788 789 791
757 752 748 740 731 723 716 708 700 695 688 695 697 701 704 703 704 711 714 712 719 720 723 728 730 733 741 744 752 756 759 765 767 767 766 774 779 777 778 781 782 781 785
758 753 749 745 739 732 726 718 712 705 705 704 703 705 707 710 711 712 713 715 716 719 724 727 732 736 740 744 748 751 756 759 761 762 766 768 770 771 773 774 774 776 777
761 757 752 749 745 739 734 730 724 720 716 714 714 715 715 716 715 716 718 718 719 722 726 729 731 736 739 743 746 749 751 754 755 758 759 760 765 768 768 767 768 769 771
766 763 759 754 749 746 742 737 734 731 728 724 722 722 722 722 722 724 722 723 725 725 730 730 733 737 740 741 744 746 748 749 751 753 754 756 758 759 759 759 759 761 761
766 765 763 758 756 752 748 743 741 738 735 731 729 728 727 727 728 728 725 726 727 729 734 734 735 738 740 742 742 745 746 746 748 747 748 748 750 751 751 751 750 751 751
765 765 764 763 760 756 753 748 745 741 737 736 735 735 735 735 734 732 731 731 732 733 737 738 738 740 742 741 740 742 744 745 746 746 744 745 745 745 745 744 747 745 745
765 765 764 764 762 760 757 752 748 745 745 744 741 740 737 738 738 738 738 738 738 740 741 740 740 742 742 741 743 743 743 742 743 741 742 742 742 742 742 739 737 739 738
762 763 763 763 762 761 758 755 753 752 750 749 748 746 745 745 744 744 743 743 743 741 741 743 742 742 742 743 741 742 744 741 741 740 739 739 739 738 740 740 733 733 734
760 761 763 762 761 760 759 757 756 755 753 752 750 749 747 747 747 746 745 745 746 746 747 745 743 742 743 744 740 742 742 739 739 738 737 736 736 736 736 736 734 734 734
758 760 760 760 761 760 759 758 757 757 757 755 755 753 752 752 751 750 750 749 748 748 747 744 745 745 745 743 743 742 741 740 738 737 737 735 734 732 732 731 731 732 734
755 758 759 759 760 760 760 759 759 758 757 757 756 756 757 755 754 754 753 753 751 749 748 748 747 746 746 745 743 741 741 741 738 736 736 733 732 730 729 728 729 730 730
749 753 755 757 757 758 759 758 758 757 757 757 757 756 756 755 754 753 753 752 751 751 751 750 749 748 747 745 743 742 739 737 735 734 732 729 727 725 724 724 726 727 727
743 745 748 750 752 754 756 757 756 756 757 757 757 756 756 755 755 754 754 754 754 753 752 752 750 748 746 744 742 739 736 733 731 729 726 724 723 722 721 721 721 722 721
739 741 743 744 746 749 751 753 754 755 756 757 757 757 757 757 756 755 754 755 755 753 753 751 749 747 744 742 740 738 735 732 729 727 723 721 719 717 716 716 716 715 716
733 736 739 741 743 745 746 748 750 752 754 755 756 756 757 757 756 755 754 753 752 750 749 747 745 744 741 739 737 735 731 728 726 723 720 718 716 714 712 711 710 709 709